When you browse on this site, cookies collect data to enhance your experience and personalize the content and advertising you see.
Visit our Privacy Policy to learn more. By continuing to use the site, you agree to this use of cookies and data.
  • In Hungary
  • List of Countries
  • For 7 days
  • Water Temperature
  • Weather Map
  • News
  • Weather Widgets
  • user-avatar
    Login

    Hourly Weather Tverdyakino

    Today, 20 January, Monday

    Time Temperature Precipitation Wind Pressure Humidity
    00:00 0°C° 0 mm 5 mps 749 mmHg 88%
    01:00 0°C° 0 mm 5 mps 749 mmHg 89%
    02:00 -1°C° 0 mm 6 mps 750 mmHg 90%
    03:00 0°C° 0 mm 5 mps 750 mmHg 90%
    04:00 0°C° 0 mm 5 mps 749 mmHg 90%
    05:00 0°C° 0 mm 4 mps 749 mmHg 89%
    06:00 -1°C° 0 mm 5 mps 749 mmHg 90%
    07:00 -1°C° 0 mm 5 mps 749 mmHg 90%
    08:00 -1°C° 0 mm 5 mps 750 mmHg 90%
    09:00 -1°C° 0 mm 5 mps 750 mmHg 91%
    10:00 -1°C° 0 mm 5 mps 749 mmHg 92%
    11:00 -1°C° 0 mm 5 mps 749 mmHg 94%
    12:00 -1°C° 0 mm 5 mps 750 mmHg 93%
    13:00 -1°C° 0 mm 5 mps 750 mmHg 91%
    14:00 -1°C° 0 mm 5 mps 749 mmHg 87%
    15:00 -1°C° 0 mm 5 mps 749 mmHg 86%
    16:00 -1°C° 0 mm 5 mps 748 mmHg 84%
    17:00 -1°C° 0 mm 5 mps 748 mmHg 82%
    18:00 -1°C° 0 mm 5 mps 748 mmHg 83%
    19:00 -1°C° 0 mm 5 mps 747 mmHg 83%
    20:00 -1°C° 0 mm 5 mps 747 mmHg 84%
    21:00 -2°C° 0.1 mm 5 mps 746 mmHg 85%
    22:00 -2°C° 0.1 mm 5 mps 745 mmHg 87%
    23:00 -2°C° 0.1 mm 5 mps 745 mmHg 88%

    Tomorrow, 21 January, Tuesday

    Time Temperature Precipitation Wind Pressure Humidity
    00:00 -1°C° 0.1 mm 5 mps 744 mmHg 89%
    01:00 -1°C° 0.1 mm 5 mps 743 mmHg 91%
    02:00 -1°C° 0.1 mm 5 mps 742 mmHg 92%
    03:00 -1°C° 0.3 mm 5 mps 741 mmHg 91%
    04:00 -1°C° 0.3 mm 6 mps 741 mmHg 91%
    05:00 -1°C° 0.3 mm 6 mps 740 mmHg 90%
    06:00 -1°C° 0.1 mm 6 mps 739 mmHg 91%
    07:00 +1°C° 0.1 mm 6 mps 738 mmHg 91%
    08:00 +1°C° 0.1 mm 6 mps 738 mmHg 92%
    09:00 +1°C° 0.4 mm 6 mps 737 mmHg 91%
    10:00 +2°C° 0.4 mm 6 mps 737 mmHg 91%
    11:00 +2°C° 0.4 mm 6 mps 736 mmHg 91%
    12:00 +2°C° 0.5 mm 6 mps 736 mmHg 91%
    13:00 +3°C° 0.5 mm 5 mps 735 mmHg 92%
    14:00 +3°C° 0.5 mm 5 mps 734 mmHg 93%
    15:00 +3°C° 1.7 mm 5 mps 733 mmHg 93%
    16:00 +3°C° 1.7 mm 5 mps 732 mmHg 93%
    17:00 +2°C° 1.7 mm 5 mps 731 mmHg 93%
    18:00 +2°C° 0.2 mm 6 mps 732 mmHg 87%
    19:00 +1°C° 0.2 mm 6 mps 732 mmHg 80%
    20:00 -1°C° 0.2 mm 7 mps 733 mmHg 73%
    21:00 -2°C° 0 mm 6 mps 733 mmHg 74%
    22:00 -2°C° 0 mm 6 mps 733 mmHg 74%
    23:00 -3°C° 0 mm 6 mps 733 mmHg 75%

    Day after tomorrow, 22 January, Wednesday

    Time Temperature Precipitation Wind Pressure Humidity
    00:00 -3°C° 0 mm 6 mps 733 mmHg 77%
    01:00 -3°C° 0 mm 6 mps 733 mmHg 78%
    02:00 -4°C° 0 mm 6 mps 733 mmHg 80%
    03:00 -4°C° 0.1 mm 6 mps 732 mmHg 82%
    04:00 -4°C° 0.1 mm 6 mps 731 mmHg 85%
    05:00 -4°C° 0.1 mm 6 mps 730 mmHg 88%
    06:00 -4°C° 0.3 mm 6 mps 730 mmHg 90%
    07:00 -4°C° 0.3 mm 5 mps 729 mmHg 91%
    08:00 -4°C° 0.3 mm 5 mps 729 mmHg 93%
    09:00 -4°C° 0.5 mm 5 mps 728 mmHg 89%
    10:00 -4°C° 0.5 mm 6 mps 728 mmHg 86%
    11:00 -4°C° 0.5 mm 6 mps 728 mmHg 82%
    12:00 -4°C° 0.1 mm 6 mps 728 mmHg 78%
    13:00 -4°C° 0.1 mm 6 mps 728 mmHg 74%
    14:00 -4°C° 0.1 mm 5 mps 728 mmHg 70%
    15:00 -4°C° 0.1 mm 5 mps 729 mmHg 74%
    16:00 -5°C° 0.1 mm 5 mps 729 mmHg 79%
    17:00 -5°C° 0.1 mm 5 mps 730 mmHg 83%
    18:00 -5°C° 0.1 mm 5 mps 730 mmHg 84%
    19:00 -5°C° 0.1 mm 5 mps 731 mmHg 85%
    20:00 -5°C° 0.1 mm 5 mps 731 mmHg 86%
    21:00 -6°C° 0.1 mm 5 mps 732 mmHg 83%
    22:00 -6°C° 0.1 mm 6 mps 732 mmHg 80%
    23:00 -8°C° 0.1 mm 6 mps 733 mmHg 77%

    23 January, Thursday

    Time Temperature Precipitation Wind Pressure Humidity
    00:00 -8°C° 0 mm 6 mps 734 mmHg 77%
    01:00 -9°C° 0 mm 6 mps 735 mmHg 77%
    02:00 -9°C° 0 mm 6 mps 735 mmHg 77%
    03:00 -9°C° 0 mm 6 mps 736 mmHg 73%
    04:00 -9°C° 0 mm 6 mps 736 mmHg 69%
    05:00 -9°C° 0 mm 6 mps 737 mmHg 65%
    06:00 -9°C° 0 mm 6 mps 737 mmHg 63%
    07:00 -9°C° 0 mm 6 mps 737 mmHg 61%
    08:00 -9°C° 0 mm 6 mps 737 mmHg 59%
    09:00 -8°C° 0 mm 6 mps 738 mmHg 59%
    10:00 -8°C° 0 mm 6 mps 738 mmHg 60%
    11:00 -8°C° 0 mm 7 mps 739 mmHg 60%
    12:00 -8°C° 0 mm 6 mps 739 mmHg 58%
    13:00 -8°C° 0 mm 6 mps 739 mmHg 56%
    14:00 -8°C° 0 mm 6 mps 740 mmHg 54%
    15:00 -7°C° 0 mm 5 mps 740 mmHg 57%
    16:00 -8°C° 0 mm 4 mps 741 mmHg 60%
    17:00 -8°C° 0 mm 4 mps 741 mmHg 63%
    18:00 -7°C° 0 mm 3 mps 741 mmHg 64%
    19:00 -7°C° 0 mm 3 mps 742 mmHg 65%
    20:00 -7°C° 0 mm 2 mps 742 mmHg 66%
    21:00 -6°C° 0 mm 2 mps 742 mmHg 68%
    22:00 -6°C° 0 mm 2 mps 741 mmHg 70%
    23:00 -6°C° 0 mm 2 mps 741 mmHg 72%

    24 January, Friday

    Time Temperature Precipitation Wind Pressure Humidity
    00:00 -6°C° 0 mm 3 mps 741 mmHg 77%
    01:00 -6°C° 0 mm 3 mps 740 mmHg 83%
    02:00 -5°C° 0 mm 4 mps 740 mmHg 89%
    03:00 -5°C° 0.3 mm 4 mps 739 mmHg 90%
    04:00 -6°C° 0.3 mm 5 mps 738 mmHg 92%
    05:00 -5°C° 0.3 mm 5 mps 737 mmHg 93%
    06:00 -5°C° 0.4 mm 5 mps 737 mmHg 93%
    07:00 -4°C° 0.4 mm 4 mps 736 mmHg 94%
    08:00 -3°C° 0.4 mm 4 mps 735 mmHg 94%
    09:00 -2°C° 0 mm 4 mps 735 mmHg 94%
    10:00 -1°C° 0 mm 4 mps 735 mmHg 95%
    11:00 0°C° 0 mm 4 mps 735 mmHg 95%
    12:00 +1°C° 0 mm 4 mps 735 mmHg 94%
    13:00 +1°C° 0 mm 4 mps 735 mmHg 93%
    14:00 +1°C° 0 mm 4 mps 735 mmHg 92%
    15:00 +1°C° 0 mm 4 mps 735 mmHg 92%
    16:00 +1°C° 0 mm 4 mps 735 mmHg 93%
    17:00 +1°C° 0 mm 4 mps 736 mmHg 94%
    18:00 0°C° 0 mm 4 mps 736 mmHg 95%
    19:00 +1°C° 0 mm 3 mps 736 mmHg 96%
    20:00 +2°C° 0 mm 2 mps 736 mmHg 97%
    21:00 +2°C° 0.1 mm 2 mps 736 mmHg 97%
    22:00 +2°C° 0.1 mm 2 mps 736 mmHg 97%
    23:00 +1°C° 0.1 mm 3 mps 736 mmHg 97%

    25 January, Saturday

    Time Temperature Precipitation Wind Pressure Humidity
    00:00 +1°C° 0.3 mm 3 mps 735 mmHg 97%
    01:00 +1°C° 0.3 mm 3 mps 735 mmHg 97%
    02:00 +1°C° 0.3 mm 3 mps 735 mmHg 97%
    03:00 +1°C° 0.4 mm 3 mps 735 mmHg 97%
    04:00 0°C° 0.4 mm 4 mps 734 mmHg 96%
    05:00 +1°C° 0.4 mm 4 mps 734 mmHg 96%
    06:00 +1°C° 0.4 mm 4 mps 734 mmHg 96%
    07:00 +1°C° 0.4 mm 4 mps 734 mmHg 96%
    08:00 +1°C° 0.4 mm 4 mps 734 mmHg 96%
    09:00 +1°C° 0.3 mm 4 mps 734 mmHg 96%
    10:00 +2°C° 0.3 mm 3 mps 735 mmHg 96%
    11:00 +2°C° 0.3 mm 3 mps 735 mmHg 96%
    12:00 +2°C° 0.2 mm 3 mps 735 mmHg 96%
    13:00 +2°C° 0.2 mm 3 mps 736 mmHg 96%
    14:00 +2°C° 0.2 mm 3 mps 736 mmHg 96%
    15:00 +2°C° 0 mm 2 mps 736 mmHg 96%
    16:00 +2°C° 0 mm 2 mps 737 mmHg 96%
    17:00 +1°C° 0 mm 2 mps 737 mmHg 96%
    18:00 +1°C° 0 mm 2 mps 737 mmHg 96%
    19:00 -1°C° 0 mm 2 mps 738 mmHg 97%
    20:00 -1°C° 0 mm 2 mps 738 mmHg 97%
    21:00 -1°C° 0 mm 2 mps 738 mmHg 97%
    22:00 -1°C° 0 mm 2 mps 738 mmHg 97%
    23:00 -1°C° 0 mm 2 mps 739 mmHg 97%
    Show more